Pagrindinis puslapis
METAR-TAF:

METAR-TAF

Oro uostai :

Reyes, Bolivija

platuma: 14-19S, ilguma: 067-23W, Aukštis: 140 m

Dabartinis oras

Ataskaita buvo paskelbta 11 valandos ir 59 minutes, ne 22:00 UTC
Vėjas 3 kt iš Pietų/Pietryčių
Temperatūra 25°C
Drėgmė 65%
Slėgis 1011 hPa
Matomumas: 8000 m

METAR: SLRY 212200Z 16003KT 8000 NSC 25/18 Q1011

Laikas: 05:59 (09:59 UTC)


TAF: trūkstamas

Orai ataskaitas ir orų prognozės (METAR, TAF).

turimą stotys yra geltonos ir raudonos taškus žemėlapyje.

Perkelti pele per norėdami pamatyti stoties vardą.

Tada spustelėkite, norėdami matyti oro stebėjimo ir prognozės.

Norėdami pakeisti žemėlapį: spustelėkite ant žalios mygtukų su juodo kryžiaus žemyn,; žalią mygtuką su brūkšneliu, jei norite nutolinti; arba žalių rodyklių gretimoms žemėlapius.


METAR-TAF: